User: anonymous   Login
Location: *
(33.8649°S, 62.1526°E)
Time: 11:15:02
(UTC+00:00)
Language:

Cosmos 1782 Rocket - Orbit

View from above orbital plane
View from above orbital plane
View from above satellite
View from above satellite

Ground track
Ground track

The orbit data is extracted from the following two-line orbital elements,

1 16987U 86074B   21101.20598591  .00000080  00000-0  69256-5 0  9991
2 16987  82.5142  84.7833 0017975 352.9701  17.4465 14.83105372865082
Epoch (UTC): 11 April 2021 04:56:37
Eccentricity: 0.0017975
inclination: 82.5142°
perigee height: 607 km
apogee height: 632 km
right ascension of ascending node: 84.7833°
argument of perigee: 352.9701°
revolutions per day: 14.83105372
mean anomaly at epoch: 17.4465°
orbit number at epoch: 86508

The dashed part of the orbit path shows where the satellite is in the earth's shadow,  

DLR